This is the latest recevied weather packets stored in our database for station/object K3MV-13. If no packets are shown the sender has not sent any weather packets the latest 10 day(s).
| Time | Temp. | Humidity | Pressure | Rain* | Wind** | Luminosity | Snow |
|---|---|---|---|---|---|---|---|
| 1777583681 | 6.67° C | 79% | 1013.2 hPa | 0 mm | - | 36 W/m² | - |
| 1777583381 | 6.67° C | 79% | 1013.1 hPa | 0 mm | - | 30 W/m² | - |
| 1777583080 | 6.67° C | 79% | 1012.7 hPa | 0 mm | - | 35 W/m² | - |
| 1777582777 | 6.67° C | 78% | 1013.1 hPa | 0 mm | - | 45 W/m² | - |
| 1777581566 | 6.67° C | 77% | 1012.7 hPa | 0 mm | - | 150 W/m² | - |
| 1777581261 | 7.22° C | 79% | 1012.7 hPa | 0 mm | - | 148 W/m² | - |
| 1777580651 | 6.67° C | 79% | 1012.9 hPa | 0 mm | - | 122 W/m² | - |
| 1777580043 | 7.22° C | 80% | 1012.7 hPa | 0 mm | - | 224 W/m² | - |
| 1777579739 | 7.22° C | 79% | 1012.5 hPa | 0 mm | - | 131 W/m² | - |
| 1777579437 | 7.22° C | 80% | 1012.5 hPa | 0 mm | - | 219 W/m² | - |
| 1777579133 | 6.67° C | 82% | 1012.5 hPa | 0 mm | - | 266 W/m² | - |
| 1777577919 | 6.67° C | 85% | 1012.5 hPa | 0 mm | - | 167 W/m² | - |
| 1777577312 | 6.11° C | 86% | 1012.5 hPa | 0 mm | - | 67 W/m² | - |
| 1777577008 | 6.67° C | 84% | 1012.3 hPa | 0 mm | - | 63 W/m² | - |
| 1777573669 | 6.67° C | 92% | 1011.9 hPa | 0 mm | - | 350 W/m² | - |
| 1777569718 | 7.22° C | 92% | 1011.7 hPa | 0 mm | - | 181 W/m² | - |
| 1777565777 | 6.67° C | 90% | 1011.9 hPa | 0 mm | - | 196 W/m² | - |
| 1777565474 | 6.67° C | 89% | 1011.8 hPa | 1.27 mm | - | 259 W/m² | - |
| 1777565171 | 6.67° C | 89% | 1011.9 hPa | 3.05 mm | - | 203 W/m² | - |
| 1777564867 | 7.22° C | 89% | 1011.8 hPa | 3.05 mm | - | 121 W/m² | - |
| 1777563960 | 7.22° C | 90% | 1011.5 hPa | 1.78 mm | - | 260 W/m² | - |
| 1777563356 | 7.22° C | 88% | 1011.5 hPa | 3.05 mm | - | 94 W/m² | - |
| 1777563052 | 7.78° C | 86% | 1011.5 hPa | 3.05 mm | - | 114 W/m² | - |
| 1777562748 | 8.33° C | 84% | 1011.4 hPa | 0 mm | - | 88 W/m² | - |
| 1777562447 | 8.33° C | 83% | 1011 hPa | 0 mm | - | 181 W/m² | - |
* Rain latest hour (hover to see other rain measurements)
** Current wind speed in m/s (hover to see current wind gust speed)